Change the Weather History Date:

Thursday, August 14, 2014

  Actual Average Record
Temperature  
Mean Temperature 84 °F -  
Max Temperature 91 °F - - ()
Min Temperature 78 °F - - ()
Cooling Degree Days 20    
Growing Degree Days 34 (Base 50)    
Moisture  
Dew Point 74 °F    
Average Humidity 72    
Maximum Humidity 89    
Minimum Humidity 55    
Precipitation  
Precipitation 0.00 in - - ()
Sea Level Pressure  
Sea Level Pressure 29.76 in    
Wind  
Wind Speed 3 mph ()    
Max Wind Speed 9 mph    
Max Gust Speed -    
Visibility 5.9 miles    
Events Rain    
T = Trace of Precipitation, MM = Missing Value Source: Averaged Metar Reports

Daily Weather History Graph

Daily Weather History Graph

Search for Another Location

Airport or City:

Trip Planner

Search our weather history database for the weather conditions in past years. The results will help you decide how hot, cold, wet, or windy it might be!

Date:

Astronomy

Aug. 14, 2014 Rise Set
Actual Time 5:51 AM ICT 6:26 PM ICT
Civil Twilight 5:29 AM ICT 6:48 PM ICT
Nautical Twilight 5:03 AM ICT 7:14 PM ICT
Astronomical Twilight 4:37 AM ICT 7:40 PM ICT
Moon 9:21 PM ICT (8/14) 9:04 AM ICT (8/14)
Length of Visible Light 13h 19m
Length of Day
12h 34m
Waning Gibbous, 83% of the Moon is Illuminated
Aug 14
Waning Gibbous
Aug 17
Last Quarter
Aug 25
New
Sep 2
First Quarter
Sep 9
Full

Hourly Weather History & Observations

Time (ICT) Temp. Heat Index Dew Point Humidity Pressure Visibility Wind Dir Wind Speed Gust Speed Precip Events Conditions
12:30 AM 80.6 °F 86.2 °F 75.2 °F 84% 29.77 in 6.2 mi Variable 2.3 mph - N/A   Partly Cloudy
1:00 AM 80.6 °F 86.2 °F 75.2 °F 84% 29.74 in 6.2 mi Variable 2.3 mph - N/A   Partly Cloudy
7:00 AM - - - %  in - Calm Calm - -  
7:00 AM 80.6 °F 87.1 °F 77.0 °F 89% 29.77 in 6.2 mi Variable 1.2 mph - N/A   Scattered Clouds
8:00 AM 80.6 °F 87.1 °F 77.0 °F 89% 29.80 in 6.2 mi Variable 2.3 mph - N/A   Scattered Clouds
8:30 AM 82.4 °F 89.5 °F 75.2 °F 79% 29.80 in 6.2 mi Variable 2.3 mph - N/A   Scattered Clouds
9:30 AM 84.2 °F 90.9 °F 73.4 °F 70% 29.80 in 6.2 mi SW 6.9 mph - N/A   Scattered Clouds
11:00 AM 86.0 °F 95.1 °F 75.2 °F 70% 29.80 in 6.2 mi SW 4.6 mph - N/A   Scattered Clouds
11:30 AM 87.8 °F 97.6 °F 75.2 °F 66% 29.77 in 6.2 mi SW 4.6 mph - N/A   Scattered Clouds
12:00 PM 87.8 °F 97.6 °F 75.2 °F 66% 29.77 in 6.2 mi SW 5.8 mph - N/A   Scattered Clouds
12:30 PM 87.8 °F 97.6 °F 75.2 °F 66% 29.77 in 6.2 mi West 4.6 mph - N/A   Scattered Clouds
1:00 PM 89.6 °F 99.8 °F 75.2 °F 62% 29.74 in 6.2 mi West 8.1 mph - N/A   Scattered Clouds
1:30 PM 89.6 °F 99.8 °F 75.2 °F 62% 29.74 in 6.2 mi West 6.9 mph - N/A   Scattered Clouds
2:00 PM 89.6 °F 98.2 °F 73.4 °F 59% 29.74 in 6.2 mi WNW 4.6 mph - N/A   Scattered Clouds
2:30 PM 89.6 °F 98.2 °F 73.4 °F 59% 29.74 in 6.2 mi West 5.8 mph - N/A   Scattered Clouds
3:00 PM 91.4 °F 100.1 °F 73.4 °F 55% 29.71 in 6.2 mi WNW 6.9 mph - N/A   Scattered Clouds
3:30 PM 91.4 °F 100.1 °F 73.4 °F 55% 29.71 in 6.2 mi West 6.9 mph - N/A   Scattered Clouds
4:00 PM 91.4 °F 102.5 °F 75.2 °F 59% 29.71 in 6.2 mi West 5.8 mph - N/A   Scattered Clouds
4:30 PM 91.4 °F 100.1 °F 73.4 °F 55% 29.71 in 6.2 mi West 4.6 mph - N/A   Scattered Clouds
5:00 PM 89.6 °F 99.8 °F 75.2 °F 62% 29.71 in 6.2 mi Variable 3.5 mph - N/A   Scattered Clouds
5:30 PM 89.6 °F 99.8 °F 75.2 °F 62% 29.71 in 6.2 mi Variable 2.3 mph - N/A   Partly Cloudy
6:00 PM 82.4 °F 89.5 °F 75.2 °F 79% 29.74 in 4.3 mi West 4.6 mph - N/A Rain Light Rain
6:30 PM 78.8 °F - 75.2 °F 89% 29.74 in 5.0 mi West 9.2 mph - N/A Rain Light Rain
7:00 PM 80.6 °F 85.4 °F 73.4 °F 79% 29.74 in 5.0 mi WSW 9.2 mph - N/A   Scattered Clouds
7:30 PM 80.6 °F 85.4 °F 73.4 °F 79% 29.77 in 5.0 mi South 4.6 mph - N/A   Scattered Clouds
8:00 PM 80.6 °F 85.4 °F 73.4 °F 79% 29.77 in 5.0 mi WNW 4.6 mph - N/A   Scattered Clouds
8:30 PM 80.6 °F 85.4 °F 73.4 °F 79% 29.77 in 5.6 mi Calm Calm - N/A   Scattered Clouds
9:00 PM 80.6 °F 85.4 °F 73.4 °F 79% 29.80 in 5.6 mi Calm Calm - N/A   Scattered Clouds
9:30 PM 80.6 °F 85.4 °F 73.4 °F 79% 29.80 in 5.6 mi Calm Calm - N/A   Scattered Clouds
10:00 PM 80.6 °F 85.4 °F 73.4 °F 79% 29.83 in 5.6 mi Calm Calm - N/A   Scattered Clouds
10:30 PM 80.6 °F 85.4 °F 73.4 °F 79% 29.83 in 5.6 mi Calm Calm - N/A   Scattered Clouds
11:00 PM 80.6 °F 85.4 °F 73.4 °F 79% 29.83 in 5.6 mi Calm Calm - N/A   Scattered Clouds
11:30 PM 80.6 °F 85.4 °F 73.4 °F 79% 29.83 in 5.6 mi Calm Calm - N/A   Scattered Clouds